Flag for Switzerland Weather past 2 weeks in Sarnen, Obwalden, Switzerland

Now
64 °F

Mild.


Feels Like: 64 °F
Forecast: 60 / 73 °F
Wind: 2 mph from Northeast

Location: Giswil

Current Time: Aug 29, 2014 at 10:44:07 PM

Latest Report: Aug 29, 2014 at 9:00 PM


Visibility: N/A

Pressure: 30.09 "Hg

Humidity: 97%

Dew point: 64 °F

Location of SarnenLocation

Historic Weather in Sarnen — Graph

°F

Sarnen temperature yesterday

Maximum temperature yesterday: 75 °F (at 4:00 PM)
Minimum temperature yesterday: 55 °F (at 8:00 AM)
Average temperature yesterday: 64 °F

Past Weeks' High & Low Weather Summary

 TemperatureHumidityPressure
High75 °F (Aug 28, 4:00 PM)99% (Aug 15, 2:00 AM)30.25 "Hg (Aug 15, 2:00 AM)
Low43 °F (Aug 17, 6:00 AM)47% (Aug 17, 3:00 PM)29.78 "Hg (Aug 26, 6:00 AM)
Average59 °F84%30.04 "Hg
* Reported Aug 14 8:00 PM — Aug 29 8:00 PM, Sarnen, Weather by CustomWeather, © 2014

Note: Actual official high and low records may vary slightly from our data, if they occured in-between our weather recording intervals... More about our weather records

Advertising

Sarnen weather history for previous 24 hours

 ConditionsComfort  
Time TempWeatherWind HumidityBarometerVisibility
8:00 PM
Aug 29
64 °FMild.1 mph98%30.08 "HgN/A
7:00 PM65 °FMild.2 mph93%30.07 "HgN/A
6:00 PM67 °FMild.2 mph91%30.07 "HgN/A
5:00 PM71 °FMild.3 mph76%30.02 "HgN/A
4:00 PM72 °FMild.2 mph71%30.02 "HgN/A
3:00 PM73 °FMild.2 mph67%30.02 "HgN/A
2:00 PM74 °FMild.2 mph62%30.02 "HgN/A
1:00 PM73 °FMild.3 mph60%30.03 "HgN/A
12:00 PM69 °FMild.2 mph69%30.06 "HgN/A
11:00 AM68 °FMild.1 mph72%30.08 "HgN/A
10:00 AM64 °FMild.No wind91%30.10 "HgN/A
9:00 AM62 °FCool.1 mph96%30.09 "HgN/A
8:00 AM60 °FCool.1 mph98%30.08 "HgN/A
7:00 AM58 °FCool.1 mph99%30.08 "HgN/A
6:00 AM57 °FCool.1 mph99%30.09 "HgN/A
5:00 AM57 °FCool.No wind99%30.09 "HgN/A
4:00 AM56 °FCool.1 mph99%30.11 "HgN/A
3:00 AM58 °FCool.1 mph98%30.09 "HgN/A
2:00 AM60 °FCool.1 mph98%30.10 "HgN/A
1:00 AM61 °FCool.1 mph98%30.10 "HgN/A
12:00 AM60 °FCool.2 mph97%30.10 "HgN/A
11:00 PM
Aug 28
62 °FCool.No wind94%30.09 "HgN/A
10:00 PM63 °FMild.1 mph95%30.08 "HgN/A
Weather by CustomWeather, © 2014

See weather overviewHow to use our weather pages